GPS BIIR-5 (PRN 22)

Last updated on Tue Jul 01 2025 00:03:13 GMT+0000 (Coordinated Universal Time)

1 26407U 00040A 25181.53992416 .00000010 00000+0 00000+0 0 9998 2 26407 54.9345 229.1336 0132932 298.7899 233.7296 2.00566092182899
UTC large
Height (km)
Speed (km/s)
/
Latitude / Longitude
Inclination (degrees)
Orbital Period (minutes)
Azimuth
Elevation
Range (km)
Doppler Factor

Next 0 passes for location: London (51.5072 / 0.1276)

Sorry there are no passes over London.